sat.trackr.live / text

‹ back to catalog

STARLINK-30763

NORAD 58163 · 2023-166P

PAYLOAD ACTIVE UNKNOWN

§ Identity

Operator
Country
US
Launch date
2023-10-29
Launch site
AFWTR
Launch vehicle
Mass (kg)
RCS (m²)

Purposes: comms

External: N2YO · Heavens-Above · Gunter

§ Orbital elements

Epoch: 2026-09-20T14:40:18.657120Z

Period
93.85 min
Inclination
53.1599°
Eccentricity
0.0001667
Mean motion
15.34402896 rev/d
Perigee alt
461.6 km
Apogee alt
463.8 km
Semi-major
6,840.8 km
B*
6.6566e-5
RAAN
20.8635°
Arg perigee
89.9917°
Mean anomaly
270.1276°
Rev number
16,320

§ Raw data

STARLINK-307631 58163U 23166P   26263.61132705  .00001873  00000+0  66566-4 0  99962 58163  53.1599  20.8635 0001667  89.9917 270.1276 15.34402896163203

JSON: /api/v1/satellites/58163 · /tle

For live sub-satellite position, see the globe view (requires WebGL).

§ Visibility from observer

Set your observer location to see the next 7 days of passes ≥ 10°. The values pass through the URL so the page stays shareable.

No JS? Fill the form by hand. The geolocation button needs JavaScript.